| time (UTC) | temp F | wind direction | speed MPH | gust MPH | rain 1hr in | rain 24hr in | rain mn in | humidity % | barometer mb |
| 20260901122433 | 67 | 0.0 | 0.0 | 0.00 | 0.01 | 0.00 | 68 | 1006.5 | |
| 20260901120432 | 66 | 0.0 | 0.0 | 0.00 | 0.01 | 0.00 | 72 | 1006.6 | |
| 20260901112431 | 65 | 0.0 | 0.0 | 0.00 | 0.01 | 0.00 | 71 | 1006.7 | |
| 20260901110432 | 65 | 0.0 | 0.0 | 0.00 | 0.01 | 0.00 | 73 | 1006.8 | |
| 20260901104431 | 66 | 0.0 | 0.0 | 0.00 | 0.02 | 0.00 | 69 | 1006.6 | |
| 20260901100430 | 66 | 0.0 | 0.0 | 0.00 | 0.02 | 0.00 | 72 | 1006.5 | |
| 20260901094433 | 64 | 0.0 | 0.0 | 0.00 | 0.02 | 0.00 | 73 | 1006.5 | |
| 20260901090431 | 63 | 0.0 | 0.0 | 0.00 | 0.02 | 0.00 | 76 | 1006.4 | |
| 20260901082431 | 63 | 0.0 | 0.0 | 0.00 | 0.02 | 0.00 | 76 | 1006.4 | |
| 20260901080431 | 63 | 0.0 | 0.0 | 0.00 | 0.02 | 0.00 | 77 | 1006.4 | |
| 20260901074430 | 62 | 0.0 | 0.0 | 0.00 | 0.02 | 0.00 | 80 | 1006.3 | |
| 20260901072431 | 63 | 0.0 | 0.0 | 0.00 | 0.02 | 0.00 | 78 | 1006.3 | |
| 20260901064430 | 61 | 0.0 | 0.0 | 0.00 | 0.02 | 0.00 | 85 | 1006.2 | |
| 20260901060430 | 61 | 0.0 | 0.0 | 0.00 | 0.02 | 0.00 | 86 | 1006.2 | |
| 20260901054100 | 60 | 0.0 | 0.0 | 0.00 | 0.02 | 0.00 | 90 | 1006.2 | |
| 20260901052431 | 60 | 0.0 | 0.0 | 0.00 | 0.02 | 0.00 | 91 | 1006.2 | |
| 20260901044101 | 60 | 0.0 | 0.0 | 0.00 | 0.02 | 0.00 | 91 | 1006.2 | |
| 20260901042429 | 60 | 0.0 | 0.0 | 0.00 | 0.02 | 0.00 | 91 | 1006.2 | |
| 20260901040431 | 60 | 0.0 | 0.0 | 0.00 | 0.02 | 0.00 | 93 | 1006.2 | |
| 20260901034430 | 60 | 0.0 | 0.0 | 0.00 | 0.02 | 0.00 | 93 | 1006.1 | |
| 20260901032431 | 60 | 0.0 | 0.0 | 0.00 | 0.02 | 0.00 | 94 | 1006.1 | |
| 20260901024429 | 61 | 0.0 | 0.0 | 0.00 | 0.02 | 0.00 | 94 | 1005.9 | |
| 20260901022428 | 61 | 0.0 | 0.0 | 0.00 | 0.02 | 0.00 | 94 | 1005.8 | |
| 20260901014430 | 61 | 0.0 | 0.0 | 0.00 | 0.02 | 0.00 | 95 | 1005.8 | |
| 20260901012430 | 61 | 0.0 | 0.0 | 0.00 | 0.02 | 0.00 | 95 | 1005.9 | |
| 20260901010430 | 60 | 0.0 | 0.0 | 0.00 | 0.02 | 0.00 | 95 | 1005.8 | |
| 20260901004100 | 60 | 0.0 | 0.0 | 0.00 | 0.02 | 0.00 | 96 | 1005.9 | |
| 20260901002432 | 60 | 0.0 | 0.0 | 0.00 | 0.02 | 0.00 | 96 | 1006.0 | |
| 20260901000430 | 60 | 0.0 | 0.0 | 0.00 | 0.02 | 0.00 | 96 | 1006.1 | |
| 20260831234441 | 60 | 0.0 | 0.0 | 0.00 | 0.04 | 0.00 | 95 | 1006.1 | |
| 20260831230430 | 60 | 0.0 | 0.0 | 0.00 | 0.06 | 0.00 | 93 | 1006.1 | |
| 20260831224429 | 60 | 0.0 | 0.0 | 0.00 | 0.06 | 0.00 | 93 | 1006.1 | |
| 20260831222430 | 60 | 0.0 | 0.0 | 0.00 | 0.06 | 0.00 | 91 | 1006.1 | |
| 20260831220429 | 61 | 0.0 | 0.0 | 0.00 | 0.06 | 0.00 | 91 | 1006.1 | |
| 20260831212100 | 62 | 0.0 | 0.0 | 0.00 | 0.07 | 0.00 | 91 | 1005.7 | |
| 20260831210431 | 62 | 0.0 | 0.0 | 0.00 | 0.14 | 0.07 | 91 | 1005.8 |